Regional Weather Roundup
Issued by NWS State College, PA

Current Version | Previous Version | Text Only | Print | Product List | Glossary On
Versions: 1 2 3 4 5 6 7 8 9 10 11 12 13 14 15 16 17 18 19 20 21 22 23 24 25 26 27 28 29 30 31 32 33 34 35 36 37 38 39 40 41 42 43 44 45 46 47 48 49 50
000
ASUS41 KCTP 190010
RWRCTP

REGIONAL WEATHER ROUNDUP
NATIONAL WEATHER SERVICE STATE COLLEGE PA
700 PM EST SAT JAN 18 2020

Note: "fair" indicates few or no clouds below 12,000 feet with no
significant weather and/or obstructions to visibility.

* = STATION THAT DOES NOT REPORT PRECIPITATION /E.G. RAIN...SNOW...ETC/
    THUNDER OR FOG.

PAZ002>004-007>009-013>016-020>023-029>032-190100-
WESTERN PENNSYLVANIA

CITY           SKY/WX    TMP DP  RH WIND       PRES   REMARKS
ERIE           LGT RAIN  41  34  76 W18G40    29.63R
MEADVILLE      LGT RAIN  39  36  89 W21G28    29.62R
FRANKLIN       LGT RAIN  40  39  97 SW15G21   29.63S
NEW CASTLE     LGT RAIN  43  41  93 SW15G24   29.68R
BEAVER COUNTY  DRIZZLE   45  42  91 SW12G18   29.68
BUTLER         RAIN      44  43  96 SW14G22   29.68F
PITTSBURGH INT LGT RAIN  47  43  86 SW18G26   29.68F
PITTSBURGH     LGT RAIN  47  44  90 SW16G26   29.69F
INDIANA*       CLOUDY    45  45 100 W16G22    29.73F FOG
LATROBE        NOT AVBL
WASHINGTON CO* CLOUDY    48  46  93 SW14G25   29.74F
$$

PAZ004>006-010>012-017>019-024>028-033>037-041-042-045-046-049>053-190100-
CENTRAL PENNSYLVANIA

CITY           SKY/WX    TMP DP  RH WIND       PRES   REMARKS
BRADFORD       LGT RAIN  36  33  89 SW9       29.60F
ST MARYS       FLURRIES  32  32 100 S6        29.68
DUBOIS         CLOUDY    42  38  85 SW21G30   29.64F
CLEARFIELD     LGT RAIN  33  31  92 S6        29.71F
JOHNSTOWN      LGT RAIN  38  35  89 S14G23    29.71F
SOMERSET       LGT RAIN  37  37 100 SW16      29.74F
ALTOONA        CLOUDY    32  29  88 SW12      29.79F
STATE COLLEGE  FRZ RAIN  30  28  93 SW8       29.78F
REEDSVILLE     NOT AVBL
WELLSBORO      CLOUDY    23  23 100 S14G25    29.69F FOG     WCI  11
WILLIAMSPORT   LGT SNOW  29  24  82 SE12G24   29.85F
SELINSGROVE    CLOUDY    30  26  85 S7G20     29.88F
FT INDIANTOWN  CLOUDY    27  27 100 CALM      29.93F
CAPITAL CITY   CLOUDY    34  27  75 SW3       29.93F
HARRISBURG     LGTSLEET  33  28  81 VRB6      29.92F
YORK           CLOUDY    32  27  81 S7        29.92F
$$

PAZ038>040-043-044-047-048-054-055-060>062-067>071-190100-
EASTERN PENNSYLVANIA

CITY           SKY/WX    TMP DP  RH WIND       PRES   REMARKS
TOWANDA        MOCLDY    30  23  74 S16G29    29.78F
SCRANTON       LGT SNOW  27  20  75 S9        29.86F
MOUNT POCONO   LGT SNOW  20  18  92 S7        29.83F FOG     WCI  11
HAZLETON       MIX PCPN  27  23  86 S10G17    29.86F
LEHIGHTON      NOT AVBL
ALLENTOWN      MIX PCPN  27  22  81 E5        29.96F
QN CITY/ALNTWN MIX PCPN  28  27  93 CALM      29.97F
QUAKERTOWN*    CLOUDY    28  28 100 CALM      29.96F
PERKASIE*      MIX PCPN  28  28 100 S5        29.96F
DOYLESTOWN     FRZ RAIN  30  27  88 S7        29.97F
READING        CLOUDY    31  29  92 S7        29.94F
LANCASTER      CLOUDY    33  29  85 S7        29.94F
COATESVILLE    CLOUDY    30  30 100 S8G14     29.95F
WEST CHESTER   MIX PCPN  32  32 100 S6        29.97F
POTTSTOWN      FRZ RAIN  29  29 100 MISG      29.99F FOG
BLUE BELL      LGT RAIN  31  31  97 S10G17    29.98F
NORTH PHILA    LGT SNOW  35  31  85 S8        30.01F FOG
PHILADELPHIA   LGT RAIN  34  31  88 S17G24    30.01F
$$



USA.gov is the U.S. government's official web portal to all federal, state and local government web resources and services.